Regional Weather Roundup
Issued by NWS Midland/Odessa, TX

Home | Current Version | Previous Version | Text Only | Print | Product List | Glossary On
Versions: 1 2 3 4 5 6 7 8 9 10 11 12 13 14 15 16 17 18 19 20 21 22 23 24 25 26 27 28 29 30 31 32 33 34 35 36 37 38 39 40 41 42 43 44 45 46 47 48 49 50
000
ASUS44 KMAF 220010
RWRMAF
MIDLAND AREA WEATHER ROUNDUP
NATIONAL WEATHER SERVICE MIDLAND TX
700 PM CDT SUN SEP 21 2014

...IN SOUTHWEST TEXAS AND SOUTHEAST NEW MEXICO...

CITY           SKY/WX    TMP DP  RH WIND       PRES   REMARKS
ALPINE         PTSUNNY   75  64  67 SE10G17   30.20R
ANDREWS        MOCLDY    71  67  89 E7        30.17S
ARTESIA        NOT AVBL
BIG SPRING     CLOUDY    74  71  91 CALM      30.15F
CARLSBAD       RAIN      70  32  24 E16       30.13R
DRYDEN           N/A     86  68  54 E13       30.04R
FORT STOCKTON  LGT RAIN  73  70  90 E14       30.11R
GUAD PASS      PTSUNNY   67  64  90 NE25        N/A
HOBBS          CLOUDY    68  68 100 E9        30.20R
MARFA          PTSUNNY   73  64  73 NE9       30.18R
MIDLAND AIRPK  LGT RAIN  73  72  97 E6        30.14F
MIDLAND INTL   CLOUDY    71  69  93 E6        30.14S
ODESSA         LGT RAIN  71  67  87 E5        30.16R
PECOS          CLOUDY    72  66  82 E18       30.07R
PRESIDIO       FAIR      87  64  46 E15       30.00R
SEMINOLE       CLOUDY    70  67  92 CALM      30.18F
SNYDER         CLOUDY    74  71  87 CALM      30.13S
WINK           CLOUDY    73  66  78 E17G24    30.10S
$$
...OTHER STATIONS IN TEXAS...

CITY           SKY/WX    TMP DP  RH WIND       PRES   REMARKS
ABILENE        MOCLDY    86  63  45 S8        30.07S
AMARILLO       CLOUDY    67  62  84 E12       30.22F
AUSTIN         PTCLDY    86  66  51 E8        30.00R
BROWNSVILLE    CLEAR     84  74  71 NE8       29.90R
CORPUS CHRISTI PTCLDY    84  72  67 E17G24    29.95R
DALLAS FTW     PTCLDY    91  59  33 E3        30.01R
DEL RIO        CLOUDY    83  74  74 E5        29.98R
EL PASO        PTSUNNY   84  59  42 E7        30.06S
HOUSTON INT    PTCLDY    84  69  60 NE7       29.98R
LUBBOCK        CLOUDY    69  64  84 CALM      30.17F
SAN ANGELO     MOCLDY    82  67  60 E6        30.07R
SAN ANTONIO    PTCLDY    89  64  43 E16       30.00R
WACO           CLEAR     89  60  37 SE5       30.00S
WICHITA FALLS  NOT AVBL
$$
...OTHER LOCATIONS IN NEW MEXICO...

CITY           SKY/WX    TMP DP  RH WIND       PRES   REMARKS
ALAMAGORDO     MOSUNNY   77  64  65 CALM      30.11S
ALBUQUERQUE    CLOUDY    76  54  46 SE18      30.23S
CANNON AFB     NOT AVBL
CLOVIS           N/A     68  63  83 S12       30.26R
HOLLOMAN AFB   MOSUNNY   80  61  51 E6        30.09S
ROSWELL        CLOUDY    71  66  84 SE12      30.19R
RUIDOSO        CLOUDY    59  57  94 E9        30.38R
SANTA FE       MOSUNNY   75  47  36 SE17G26   30.28R
TRUTH OR CONSE CLOUDY    74  63  68 N17       30.16R
TUCUMCARI      LGT RAIN  68  58  70 S20       30.22R
$$


USA.gov is the U.S. government's official web portal to all federal, state and local government web resources and services.